User: anonymous   Login
Location: Unspecified
(0.0000°N, 0.0000°E)
Time: 03:36:40
(UTC+00:00)
Language:

USA 171 - Orbit

View from above orbital plane
View from above orbital plane
View from above satellite
View from above satellite

Ground track
Ground track

The orbit data is extracted from the following two-line orbital elements,

1 27937U 03041A   17165.26492422 0.00000000  00000-0  00000-0 0    00
2 27937   9.3237  66.2209 0045989 213.2931 146.4274  1.00270000    03
Epoch (UTC): 14 June 2017 06:21:29
Eccentricity: 0.0045989
inclination: 9.3237°
perigee height: 35593 km
apogee height: 35980 km
right ascension of ascending node: 66.2209°
argument of perigee: 213.2931°
revolutions per day: 1.00270000
mean anomaly at epoch: 146.4274°
orbit number at epoch: 0

The dashed part of the orbit path shows where the satellite is in the earth's shadow,  

DLR